Temp
66 64 65 66 66 66 66 66 65 66 66 65 65 64 64 64 64 63 63 63 63 63 63 63 63 63 58 49 49 65 71 71 67 65 59 56 51 49 45 48 51 48 52 58 60 61 62
65 65 65 63 65 66 66 66 65 65 65 65 64 64 64 63 63 63 63 63 63 63 63 63 63 62 52 41 62 65 64 63 63 61 57 56 53 54 49 49 48 52 53 55 58 59 60
64 64 64 64 64 64 65 65 65 65 65 65 65 63 63 63 63 62 62 63 63 63 62 63 63 60 49 48 62 63 64 61 63 61 56 58 58 53 52 48 54 52 47 51 53 55 55
62 63 63 64 63 63 63 64 64 64 65 65 64 63 63 62 62 62 62 62 61 61 62 63 63 55 44 62 62 61 62 60 63 63 62 61 60 54 51 54 50 45 43 38 50 55 56
61 61 61 62 63 63 63 63 63 63 64 64 64 63 62 62 62 61 61 61 61 61 62 63 56 51 42 63 56 60 61 57 59 60 60 66 57 48 49 44 40 39 34 37 44 56 54
60 61 60 61 61 62 62 62 62 63 64 64 63 62 62 62 61 61 60 60 60 59 60 60 59 47 51 51 57 59 60 60 55 55 54 51 48 41 39 38 32 37 34 37 38 48 52
59 60 60 60 61 61 62 61 62 61 63 63 63 62 61 61 61 60 57 50 46 44 50 48 49 48 54 58 61 57 59 56 53 48 41 46 37 33 37 39 41 41 36 35 40 50 47
59 59 59 60 60 60 61 61 61 60 61 62 62 62 61 61 61 60 53 46 49 50 40 50 51 51 56 59 50 55 59 47 45 39 41 40 36 44 44 43 41 39 36 36 43 49 49
60 59 58 59 59 59 60 60 60 60 59 62 62 61 61 61 60 56 52 49 54 55 41 46 50 49 51 55 49 50 55 49 43 39 40 35 40 47 43 41 39 38 36 37 37 44 47
59 59 60 58 58 58 58 59 60 60 58 60 61 61 61 60 53 51 50 55 53 55 35 39 41 48 51 52 44 58 59 53 46 39 40 39 45 43 41 39 41 34 43 43 41 40 30
58 58 58 57 57 57 57 59 59 59 57 58 59 61 60 59 50 48 52 53 55 50 15 41 41 57 52 46 49 48 59 53 40 40 40 36 38 39 38 40 45 38 47 43 44 40 38
58 58 57 56 56 56 56 57 57 58 57 57 57 60 58 54 54 54 53 55 50 29 18 37 42 40 41 44 46 50 48 53 49 42 40 39 47 42 43 47 47 47 43 42 40 39 29
57 57 57 56 55 55 56 55 56 57 57 56 57 57 56 58 49 54 54 47 31 17 40 35 37 39 39 40 41 43 40 38 36 31 30 36 36 42 45 40 44 43 36 27 25 25 25
57 57 57 57 56 55 55 56 55 56 57 56 56 57 58 58 54 54 49 39 24 35 34 42 42 41 36 40 41 39 37 35 39 37 32 22 22 36 42 39 36 37 36 28 18 17 27
56 56 56 56 57 55 54 54 55 56 56 55 55 54 53 53 55 54 43 30 29 35 41 39 40 35 36 40 40 38 35 33 39 38 30 26 27 42 43 44 44 34 31 40 31 33 28
56 56 56 56 57 57 53 53 54 55 55 54 51 51 50 55 55 50 38 34 36 43 43 42 33 37 34 36 34 34 32 39 39 41 43 35 26 39 42 44 44 42 43 29 31 17 21
56 56 56 56 56 56 53 53 54 55 55 54 49 46 50 55 53 42 33 36 39 45 45 39 37 37 36 36 36 32 34 40 43 43 42 40 34 33 37 33 34 34 33 36 35 32 26
55 56 55 56 56 56 54 53 53 54 54 51 48 38 51 52 40 39 36 41 46 43 46 43 43 40 38 38 36 33 33 40 48 47 36 39 35 29 32 42 43 40 37 38 30 28 34
54 55 55 55 55 55 53 52 53 53 53 47 45 44 51 50 33 35 40 42 44 42 43 41 39 41 43 38 35 37 41 48 49 46 39 40 34 28 32 34 42 37 41 42 43 39 33
54 55 55 55 55 55 54 52 53 53 53 48 45 38 44 45 45 40 38 39 39 45 44 43 40 42 40 38 42 37 39 47 50 48 47 43 35 32 30 36 40 36 38 42 41 32 33
53 54 54 55 55 55 54 53 53 53 53 49 45 41 45 37 39 41 42 42 39 37 43 43 38 39 39 36 36 36 42 45 47 49 45 41 34 34 35 37 38 42 39 41 39 40 34
53 54 54 55 55 54 54 53 52 52 52 48 42 42 44 42 44 42 41 39 39 40 40 37 37 41 41 38 39 37 42 44 45 46 43 44 34 35 35 44 40 39 42 43 42 40 36
53 53 54 55 54 54 54 53 52 52 51 47 47 46 46 43 42 39 40 41 41 44 44 45 41 40 41 42 46 47 47 48 49 46 43 41 37 35 34 43 40 35 37 43 39 45 46
53 53 54 54 54 54 54 53 52 52 51 49 48 46 44 40 42 41 42 42 41 43 42 45 45 42 48 54 50 47 46 47 47 47 49 43 40 41 35 38 30 45 49 51 49 51 52
53 53 54 54 54 54 53 53 53 52 52 50 49 48 45 40 45 44 43 43 43 46 43 44 48 50 52 49 40 39 36 40 40 42 47 48 40 38 32 30 39 46 46 44 45 45 49
52 52 53 53 53 53 53 53 53 52 52 50 49 50 48 43 41 47 44 44 40 40 41 43 47 49 50 45 42 32 31 36 36 39 42 45 44 40 30 28 29 40 46 49 47 39 46
53 52 52 53 53 53 53 53 53 51 52 50 50 52 48 43 46 47 42 43 45 43 39 42 43 44 48 42 38 34 35 41 34 35 35 40 37 35 32 31 36 46 47 48 37 40 46
52 52 52 52 53 53 52 52 53 51 51 50 49 51 48 44 47 50 50 45 44 44 39 43 42 44 42 38 39 36 34 40 34 35 41 37 34 35 36 30 30 48 48 43 46 43 43
52 52 52 52 52 52 52 52 53 51 52 51 47 51 52 47 46 51 52 54 51 50 46 43 42 44 46 41 39 41 37 39 41 31 37 36 40 38 38 39 45 45 46 47 48 46 42
MSLP
1016.27 1015.88 1015.60 1015.31 1015.08 1014.86 1014.66 1014.56 1014.40 1014.34 1014.44 1014.48 1014.68 1014.92 1014.95 1015.11 1015.13 1015.19 1015.19 1015.21 1015.13 1015.11 1015.19 1015.21 1015.23 1015.25 1015.28 1015.25 1014.07 1012.83 1012.65 1012.41 1012.46 1013.02 1013.66 1014.09 1014.39 1014.60 1014.57 1014.08 1013.61 1012.95 1012.44 1011.90 1011.40 1011.01 1010.61
1016.39 1015.90 1015.42 1014.95 1014.64 1014.37 1014.15 1014.03 1014.03 1013.83 1013.85 1014.01 1014.13 1014.29 1014.62 1014.80 1014.88 1014.94 1014.94 1014.99 1014.99 1014.92 1015.14 1015.31 1015.34 1015.28 1015.47 1015.13 1013.08 1012.78 1013.03 1012.95 1012.97 1013.28 1013.62 1013.97 1013.95 1014.05 1014.41 1014.21 1013.92 1012.82 1012.50 1011.94 1011.45 1011.03 1010.78
1016.40 1015.90 1015.44 1014.95 1014.28 1013.93 1013.65 1013.46 1013.46 1013.44 1013.33 1013.45 1013.66 1013.81 1014.11 1014.45 1014.63 1014.68 1014.73 1014.79 1014.75 1014.86 1015.03 1015.18 1015.33 1015.35 1015.33 1013.89 1012.88 1012.60 1012.84 1013.13 1013.14 1013.14 1013.53 1013.67 1013.80 1014.02 1013.97 1014.07 1013.63 1013.23 1012.78 1011.96 1011.41 1011.08 1010.64
1016.64 1016.01 1015.49 1014.86 1014.22 1013.71 1013.15 1012.96 1012.83 1012.84 1012.87 1012.88 1013.02 1013.28 1013.66 1013.99 1014.24 1014.45 1014.51 1014.58 1014.69 1014.79 1014.89 1015.02 1015.15 1015.38 1014.71 1013.13 1012.80 1013.05 1012.75 1013.07 1013.02 1012.93 1013.13 1013.42 1013.59 1014.00 1014.11 1013.94 1013.76 1013.67 1013.24 1012.54 1011.09 1010.78 1010.44
1016.71 1016.18 1015.57 1014.87 1014.26 1013.62 1012.88 1012.27 1012.24 1012.19 1012.19 1012.29 1012.40 1012.59 1013.08 1013.56 1013.91 1014.13 1014.32 1014.50 1014.58 1014.66 1014.72 1014.77 1015.23 1015.32 1014.14 1012.80 1012.75 1012.52 1012.72 1013.06 1013.12 1013.01 1012.96 1013.19 1013.61 1014.10 1014.14 1014.43 1014.77 1014.19 1013.58 1012.78 1011.68 1010.74 1010.54
1016.69 1016.02 1015.42 1014.78 1014.10 1013.41 1012.71 1012.13 1011.60 1011.52 1011.50 1011.54 1011.80 1012.01 1012.46 1012.98 1013.48 1013.90 1014.23 1014.44 1014.55 1014.54 1014.49 1014.62 1014.73 1015.33 1013.61 1012.64 1012.21 1012.23 1012.36 1012.83 1013.31 1013.48 1013.38 1013.74 1014.11 1014.35 1014.70 1014.83 1013.87 1013.84 1013.61 1012.93 1012.15 1011.23 1010.58
1016.65 1015.89 1015.23 1014.53 1013.81 1013.21 1012.42 1011.90 1011.10 1010.81 1010.77 1010.83 1010.97 1011.35 1011.81 1012.38 1012.98 1013.55 1014.36 1014.81 1015.15 1014.95 1014.29 1013.51 1013.58 1013.26 1012.59 1012.27 1011.98 1012.24 1012.45 1012.96 1013.42 1013.96 1014.02 1014.10 1014.61 1014.28 1014.42 1014.50 1014.29 1013.96 1013.68 1013.07 1012.69 1011.95 1011.23
1016.66 1016.06 1015.28 1014.29 1013.55 1012.90 1012.08 1011.46 1010.87 1010.42 1010.06 1010.06 1010.24 1010.58 1011.13 1011.69 1012.44 1013.26 1013.91 1014.22 1013.63 1013.43 1013.66 1013.15 1012.80 1012.92 1012.57 1012.35 1012.52 1012.31 1012.38 1013.30 1013.75 1014.06 1014.40 1014.97 1013.97 1014.06 1014.18 1014.37 1014.36 1014.14 1013.76 1012.77 1012.89 1012.24 1011.37
1016.09 1015.58 1015.10 1014.20 1013.36 1012.56 1011.82 1011.06 1010.49 1010.03 1009.47 1009.19 1009.46 1009.82 1010.42 1011.11 1012.04 1013.08 1013.43 1013.59 1013.43 1013.34 1013.78 1012.78 1012.31 1012.34 1012.53 1012.54 1012.33 1012.22 1012.44 1012.87 1013.44 1014.07 1014.31 1014.32 1013.59 1013.40 1013.85 1013.84 1013.96 1013.64 1013.34 1013.47 1013.35 1012.60 1010.99
1015.67 1015.09 1014.30 1013.91 1013.15 1012.25 1011.50 1010.72 1009.99 1009.28 1009.08 1008.50 1008.64 1009.03 1009.69 1010.76 1012.22 1012.59 1013.03 1013.16 1013.62 1013.64 1013.69 1012.70 1012.23 1011.77 1011.94 1012.19 1012.09 1011.63 1011.82 1012.53 1013.32 1013.62 1014.09 1014.07 1013.85 1013.42 1013.47 1013.16 1013.72 1012.92 1012.95 1013.18 1013.11 1012.97 1011.85
1015.41 1014.66 1013.98 1013.45 1012.66 1011.96 1011.08 1010.15 1009.38 1008.83 1008.33 1007.75 1008.00 1008.32 1009.09 1009.89 1010.77 1011.89 1011.96 1012.63 1013.45 1014.15 1013.83 1012.09 1011.96 1011.66 1011.72 1012.00 1011.60 1011.64 1011.66 1012.07 1012.76 1013.34 1013.95 1013.52 1013.28 1013.11 1012.87 1012.41 1012.95 1012.09 1012.56 1012.67 1012.66 1012.36 1012.10
1015.22 1014.38 1013.68 1013.01 1012.21 1011.37 1010.58 1009.83 1009.07 1008.41 1008.06 1007.26 1007.36 1007.75 1008.51 1009.73 1010.05 1010.66 1011.58 1012.52 1013.64 1014.39 1012.63 1011.72 1011.69 1011.80 1012.10 1011.86 1011.64 1011.80 1012.10 1012.47 1012.79 1013.12 1013.44 1013.43 1013.24 1012.96 1012.01 1011.90 1012.21 1012.31 1012.56 1012.56 1012.57 1012.49 1011.20
1015.00 1013.99 1013.36 1012.61 1011.82 1010.90 1010.18 1009.57 1008.93 1007.95 1007.72 1007.47 1006.95 1007.30 1007.84 1008.72 1009.49 1010.22 1011.43 1012.75 1013.69 1013.12 1011.27 1011.46 1011.38 1011.60 1011.76 1011.64 1011.72 1011.76 1012.23 1012.60 1012.93 1013.43 1013.36 1013.27 1012.82 1012.82 1012.30 1012.01 1011.85 1012.16 1012.68 1012.46 1012.31 1011.72 1008.78
1014.52 1013.60 1012.75 1011.92 1011.17 1010.61 1009.75 1008.96 1008.52 1007.44 1007.00 1006.77 1006.45 1006.61 1006.58 1007.69 1008.68 1009.89 1011.05 1012.54 1012.30 1010.54 1010.63 1010.57 1010.76 1011.20 1011.23 1011.19 1011.25 1011.60 1012.13 1012.17 1012.57 1012.80 1013.03 1012.86 1012.03 1011.37 1011.13 1011.10 1011.14 1011.46 1011.85 1011.65 1010.98 1010.26 1008.92
1014.18 1013.18 1012.37 1011.40 1010.41 1010.03 1009.40 1008.49 1007.50 1006.57 1006.51 1006.50 1006.38 1005.96 1005.30 1007.20 1008.10 1009.13 1010.60 1011.27 1010.15 1009.63 1009.54 1010.03 1010.60 1010.59 1010.64 1010.63 1011.03 1011.47 1011.65 1011.18 1010.72 1011.62 1012.04 1011.58 1010.87 1009.72 1009.34 1009.59 1010.43 1010.96 1010.81 1010.06 1010.88 1009.72 1008.77
1013.51 1012.90 1012.00 1011.05 1009.98 1009.19 1008.84 1008.22 1006.90 1005.95 1006.10 1006.06 1005.90 1005.35 1004.76 1006.57 1007.93 1008.87 1010.25 1009.52 1009.14 1008.86 1009.22 1009.73 1009.70 1010.03 1009.97 1010.21 1010.93 1011.10 1010.81 1009.12 1009.64 1009.68 1010.08 1010.52 1010.40 1009.36 1009.60 1009.77 1009.57 1009.15 1009.90 1010.75 1010.75 1009.59 1007.74
1013.05 1012.39 1011.54 1010.65 1009.65 1008.79 1008.21 1007.23 1006.20 1005.38 1005.33 1005.33 1005.40 1004.44 1004.98 1006.24 1007.79 1008.86 1008.85 1008.70 1008.49 1008.53 1008.74 1009.23 1009.28 1009.48 1009.59 1009.78 1009.94 1010.14 1009.29 1008.12 1008.11 1008.27 1009.47 1009.97 1010.05 1009.07 1009.21 1008.35 1007.96 1009.21 1009.14 1008.97 1008.85 1008.39 1006.82
1012.71 1011.88 1011.15 1010.18 1009.33 1008.56 1007.72 1006.85 1006.16 1005.42 1005.46 1005.54 1004.89 1004.71 1005.02 1005.88 1007.20 1007.74 1007.76 1007.89 1007.82 1008.26 1008.53 1008.86 1009.02 1009.05 1009.04 1009.12 1009.11 1009.27 1008.04 1007.34 1006.55 1007.16 1008.62 1008.76 1008.81 1008.11 1006.98 1006.27 1006.50 1006.88 1006.99 1007.71 1007.56 1007.13 1006.58
1012.33 1011.45 1010.68 1009.85 1009.00 1008.23 1007.77 1006.74 1006.07 1005.62 1005.57 1005.83 1004.29 1004.39 1004.89 1005.16 1005.85 1006.68 1007.21 1007.35 1007.53 1007.90 1008.05 1008.57 1008.56 1008.54 1008.50 1008.51 1008.48 1007.73 1006.60 1005.84 1006.07 1006.60 1007.32 1007.99 1008.01 1007.43 1005.45 1006.16 1005.47 1006.07 1005.65 1006.13 1006.49 1006.35 1005.60
1011.90 1011.03 1010.31 1009.57 1008.85 1008.10 1007.32 1006.46 1005.80 1005.30 1005.05 1005.55 1004.10 1003.55 1004.54 1004.95 1005.29 1005.92 1006.63 1006.96 1007.24 1007.43 1007.68 1008.03 1008.06 1008.10 1008.02 1007.67 1007.37 1006.93 1006.06 1004.89 1004.76 1005.38 1006.06 1007.11 1006.79 1006.12 1005.01 1003.96 1003.93 1004.34 1005.16 1004.92 1005.11 1005.10 1005.38
1011.44 1010.70 1010.04 1009.19 1008.50 1007.83 1007.07 1006.08 1005.36 1004.36 1004.14 1004.62 1003.39 1002.65 1002.71 1003.55 1004.54 1005.07 1005.88 1006.15 1006.43 1006.85 1007.37 1007.59 1007.59 1007.25 1007.21 1007.00 1006.14 1006.02 1005.40 1004.70 1004.37 1004.87 1005.81 1006.40 1005.55 1005.12 1003.94 1002.94 1002.87 1002.31 1002.90 1003.11 1002.91 1003.77 1004.33
1011.00 1010.32 1009.58 1008.79 1008.23 1007.56 1006.89 1006.02 1005.26 1004.34 1003.85 1003.36 1002.45 1002.00 1002.73 1003.17 1004.01 1004.71 1005.28 1005.37 1005.62 1006.09 1006.58 1006.77 1006.71 1006.15 1006.24 1005.67 1005.07 1004.46 1004.32 1003.86 1003.51 1004.54 1004.96 1005.29 1004.44 1003.78 1001.86 1000.41 1001.37 1001.32 1001.53 1001.53 1002.39 1003.19 1003.78
1010.62 1009.90 1009.08 1008.35 1007.84 1007.11 1006.28 1005.81 1005.28 1004.45 1003.88 1002.75 1002.16 1001.78 1002.07 1003.15 1003.61 1004.32 1004.33 1004.62 1004.80 1005.24 1005.39 1005.42 1005.60 1005.51 1004.72 1004.19 1004.49 1003.79 1004.00 1003.62 1002.95 1003.01 1003.95 1004.09 1003.90 1003.04 1001.39 1000.14 1000.27 1000.09 999.92 999.28 1000.76 1001.13 1000.44
1010.28 1009.53 1008.70 1008.05 1007.51 1006.91 1006.33 1005.60 1004.73 1004.06 1003.69 1002.90 1001.81 1001.54 1002.13 1002.92 1003.18 1003.45 1003.86 1004.31 1004.47 1004.49 1004.39 1004.48 1004.77 1004.48 1003.92 1003.32 1003.12 1003.43 1003.33 1002.70 1002.30 1002.08 1002.49 1002.91 1002.98 1002.21 1001.64 1000.14 999.39 998.17 997.48 997.63 998.24 998.62 998.72
1010.02 1009.25 1008.50 1007.74 1007.07 1006.51 1006.10 1005.37 1004.78 1004.15 1003.14 1002.17 1001.55 1001.17 1002.01 1002.56 1002.56 1002.85 1003.42 1003.67 1003.91 1003.40 1003.67 1003.59 1003.51 1003.30 1003.72 1003.84 1003.62 1003.43 1003.19 1002.67 1002.25 1002.01 1001.78 1002.27 1002.60 1002.24 1001.88 1000.89 999.51 998.17 997.67 997.61 997.75 998.29 998.59
1009.44 1008.92 1008.58 1007.94 1007.47 1006.75 1006.19 1005.39 1004.45 1003.48 1002.77 1001.93 1001.58 1001.44 1001.76 1002.22 1002.57 1002.50 1003.02 1003.27 1003.26 1003.35 1003.50 1002.92 1002.82 1002.79 1002.98 1003.28 1003.26 1003.45 1003.36 1002.82 1002.40 1002.17 1001.74 1001.92 1002.02 1002.21 1002.15 1001.51 999.94 998.68 998.08 997.72 997.81 998.46 998.55
1008.94 1008.36 1007.94 1007.32 1006.83 1006.31 1005.61 1004.80 1004.09 1003.42 1002.97 1002.24 1001.70 1001.46 1001.95 1002.42 1002.41 1002.49 1002.76 1002.84 1003.13 1003.24 1003.23 1002.83 1002.64 1002.73 1002.75 1002.83 1002.83 1003.14 1003.01 1002.75 1002.51 1002.24 1002.14 1002.04 1002.16 1002.27 1002.12 1001.43 999.77 998.40 998.15 997.94 998.52 999.54 999.01
1008.63 1007.98 1007.59 1007.07 1006.60 1006.10 1005.48 1004.72 1004.05 1003.73 1003.03 1002.48 1001.87 1001.85 1001.81 1002.29 1002.30 1002.28 1002.39 1002.67 1002.76 1002.80 1003.05 1002.91 1002.71 1002.48 1002.55 1002.36 1002.42 1002.64 1002.62 1002.35 1002.40 1002.29 1001.81 1001.82 1001.97 1002.10 1002.02 1001.45 1000.01 998.46 998.34 998.63 999.27 999.60 999.98
1008.39 1007.70 1007.25 1006.80 1006.33 1005.84 1005.20 1004.63 1004.09 1003.61 1002.95 1002.53 1001.97 1001.98 1001.97 1002.53 1002.62 1002.27 1002.02 1001.82 1002.00 1002.24 1002.58 1002.69 1002.36 1001.91 1001.67 1001.81 1001.92 1001.86 1002.27 1002.27 1002.13 1002.32 1001.82 1001.85 1001.15 1001.24 1001.14 1000.26 999.68 999.25 999.22 999.33 999.60 1000.05 1000.77
Wind_Speed
23 22 18 17 17 16 15 12 11 11 14 13 12 11 10 9 7 6 4 3 2 2 3 3 2 2 1 2 7 4 3 7 6 7 8 6 5 4 4 4 4 5 5 10 9 10 14
24 25 23 23 19 17 16 15 13 11 13 14 14 13 11 10 8 7 5 4 3 2 2 2 2 1 1 4 5 1 5 1 3 3 5 7 6 7 5 5 6 5 6 7 8 12 9
23 24 25 26 22 22 17 14 13 13 12 13 15 14 12 11 10 8 7 5 4 3 4 2 0 2 3 12 3 3 5 3 3 5 4 5 5 1 1 4 4 5 9 9 7 4 6
25 25 25 25 26 24 21 16 14 14 14 13 14 15 13 12 11 10 7 5 2 2 5 4 3 1 7 5 8 10 7 4 7 4 3 6 2 4 4 5 7 4 3 4 2 7 5
25 25 27 26 25 26 25 20 17 16 16 15 15 14 15 13 12 11 9 6 3 5 6 6 3 3 9 6 3 8 6 4 3 3 3 5 2 3 4 3 4 3 5 6 5 10 5
26 26 26 25 26 27 25 23 20 18 19 16 16 15 16 14 13 11 10 6 2 1 2 4 2 0 4 4 3 3 5 4 3 4 3 2 2 3 2 5 12 11 5 6 6 5 9
27 28 28 27 27 28 27 28 24 22 20 19 17 14 16 16 14 13 9 4 2 1 5 8 7 4 2 3 2 3 4 4 2 1 5 2 3 9 10 7 6 8 5 8 2 7 7
23 27 28 29 27 27 28 26 27 22 22 20 18 15 17 17 16 17 6 4 4 2 3 13 13 12 9 7 4 4 8 6 6 12 4 4 12 9 9 10 9 10 14 18 8 9 11
27 24 26 28 29 26 28 27 27 25 25 22 18 15 17 17 16 11 9 7 3 3 2 4 4 8 9 7 8 6 10 5 5 10 12 17 7 17 12 14 12 14 15 9 8 9 15
27 31 25 29 28 28 27 27 26 24 23 20 19 17 18 18 11 5 8 9 4 4 3 4 3 3 4 7 5 14 10 7 7 15 12 12 16 13 13 17 12 17 7 11 10 10 6
29 28 28 29 29 28 26 27 25 22 20 17 18 17 22 22 9 8 6 9 7 2 3 5 5 2 4 7 4 3 8 10 11 8 7 7 7 16 21 18 14 11 10 9 9 12 11
29 30 28 29 30 28 27 24 25 22 19 20 14 16 27 5 3 7 11 12 4 5 10 7 4 6 5 5 3 4 4 6 2 8 12 8 3 4 16 15 15 3 5 9 3 4 10
28 30 28 27 29 28 26 24 31 27 17 18 8 13 23 11 7 14 12 5 3 5 2 7 5 6 4 6 7 9 8 7 5 5 9 5 11 6 3 3 7 16 8 4 8 8 13
29 29 28 29 26 29 27 28 33 28 18 15 14 12 23 9 15 15 6 2 6 5 5 3 5 8 8 9 7 7 5 10 16 7 2 6 7 16 15 16 8 13 15 5 6 4 8
29 29 30 30 30 26 29 29 31 24 14 7 10 7 9 10 18 11 7 5 8 5 6 10 6 6 8 8 3 9 12 7 14 19 10 7 9 3 9 10 16 4 14 23 6 5 4
28 28 29 30 29 28 29 31 26 18 7 8 3 5 7 22 18 10 6 7 5 4 7 6 7 9 7 6 10 10 9 8 7 18 17 3 6 7 8 5 11 17 7 5 6 4 6
28 28 29 29 29 28 30 33 23 16 9 13 3 4 14 18 11 10 7 6 5 5 6 6 7 5 7 5 11 6 6 5 13 13 22 8 8 3 8 14 17 8 11 9 7 7 3
28 27 28 28 27 27 30 27 26 17 9 9 3 5 10 17 8 5 5 7 5 7 2 3 4 8 6 9 6 8 12 9 9 8 12 14 4 8 17 8 17 23 20 18 7 8 7
27 27 27 28 26 25 29 23 24 10 6 2 4 3 11 11 5 6 5 5 5 6 8 7 8 10 11 7 6 9 11 8 8 13 10 9 5 5 5 6 10 16 17 22 13 3 16
26 26 26 27 26 27 28 24 23 18 6 4 5 5 5 5 4 7 8 8 8 7 8 8 5 11 10 8 12 4 7 7 14 13 19 13 5 8 8 1 7 11 22 22 18 7 10
25 25 27 25 26 27 28 27 26 20 21 6 5 3 4 11 8 10 12 8 13 7 7 9 5 14 8 8 6 11 15 14 4 11 12 9 5 9 15 22 16 18 22 24 27 11 13
25 23 25 25 25 27 27 28 27 22 23 5 2 5 2 6 14 11 13 11 10 8 9 6 8 11 16 13 8 5 7 6 6 11 11 7 5 6 8 8 16 15 17 19 16 13 21
25 23 24 24 24 26 26 27 24 21 16 3 2 1 5 7 8 8 6 9 11 8 12 11 15 14 15 21 17 18 6 11 7 7 10 5 4 5 7 1 14 9 19 14 18 21 8
25 23 24 24 23 25 26 28 23 22 18 4 3 3 4 5 8 9 9 13 15 15 11 8 12 14 4 4 6 7 11 9 6 8 8 5 3 4 4 5 3 4 3 6 6 7 6
25 22 23 24 23 25 27 28 21 23 23 5 3 3 3 2 3 8 9 4 7 12 15 12 14 10 6 8 3 2 2 6 2 2 6 8 2 3 2 2 5 4 6 3 5 3 6
25 22 20 22 21 22 24 27 22 23 24 4 2 1 3 4 6 2 4 4 3 2 7 8 1 3 6 3 3 5 3 4 4 2 2 4 3 2 3 2 1 2 2 1 1 3 0
25 21 21 22 22 23 25 25 22 24 23 11 2 0 3 3 2 3 3 2 2 1 3 1 2 4 4 5 2 3 3 2 3 5 4 3 1 2 2 2 7 4 2 2 3 5 2
23 21 21 21 22 22 24 26 21 22 22 11 1 2 3 2 1 4 4 4 2 3 2 2 2 2 3 5 3 4 3 4 2 3 4 5 5 3 2 1 6 4 3 2 3 2 2
22 20 19 20 20 22 24 25 20 22 21 17 1 1 3 2 2 1 3 3 6 5 2 3 2 2 3 3 2 3 2 3 2 3 1 4 6 5 8 6 1 3 1 1 2 2 3
Wind_Direction
342 340 298 287 290 288 286 274 268 249 241 228 228 240 242 241 232 235 246 258 279 305 355 4 343 301 276 195 247 258 5 62 50 162 192 174 176 173 217 235 285 239 263 257 262 260 266
337 339 337 332 287 281 279 272 268 252 241 239 224 222 235 237 233 226 233 249 237 246 276 304 320 190 311 245 242 266 281 73 155 143 171 164 210 197 264 249 240 298 306 283 265 274 266
339 333 339 334 329 294 275 271 258 255 245 236 238 218 215 221 228 223 232 225 233 229 222 228 204 225 242 241 228 296 20 6 295 177 178 216 232 159 143 294 316 274 300 295 249 247 258
343 338 325 324 332 338 288 270 254 248 248 235 232 223 208 210 217 217 212 195 207 242 229 208 157 107 249 259 253 284 297 308 298 214 215 174 246 214 206 271 342 335 289 263 178 201 225
344 338 331 330 319 326 324 279 262 250 239 238 227 213 202 205 206 208 185 178 197 240 242 195 135 155 268 302 231 240 168 193 333 263 271 274 192 216 335 185 288 243 260 274 298 226 232
339 337 333 328 324 317 322 339 288 257 244 229 232 219 204 198 197 194 169 160 182 279 203 171 275 237 259 238 203 198 162 140 218 337 314 212 144 166 122 167 218 226 236 237 213 313 226
338 336 334 328 326 322 313 323 311 278 247 231 223 214 205 192 190 172 135 99 70 278 228 204 187 233 253 224 107 198 155 122 106 138 216 246 186 216 214 219 247 278 254 255 344 311 308
338 334 332 328 325 321 318 314 317 314 255 236 227 206 202 194 180 163 131 193 221 155 256 238 246 228 273 320 327 190 123 152 164 222 159 272 244 218 217 223 232 245 262 263 288 266 275
336 329 330 329 323 317 316 315 316 311 308 233 224 209 201 186 161 156 196 200 166 91 256 240 224 239 234 219 229 214 156 178 184 219 210 220 223 225 213 225 222 236 242 262 252 291 280
334 332 327 328 325 319 312 314 305 305 315 250 222 204 186 152 140 150 209 192 164 86 274 203 209 228 189 185 254 212 202 180 216 220 228 244 231 253 224 231 217 246 196 244 262 274 253
336 333 330 327 326 322 316 312 308 300 311 245 245 207 159 156 143 169 184 145 136 87 345 181 150 70 154 185 139 185 202 199 219 197 173 214 217 217 232 232 219 250 236 239 257 256 272
334 330 330 326 325 322 323 322 321 299 303 294 244 218 159 144 114 138 128 128 107 57 252 165 132 164 162 210 190 115 156 228 168 228 226 234 289 282 233 239 222 246 238 267 274 267 237
335 330 330 328 327 329 324 325 326 304 281 291 245 246 163 161 169 143 131 120 122 167 185 171 172 168 209 176 201 185 171 200 211 190 237 207 227 241 241 203 223 218 213 219 203 210 240
335 329 332 328 325 332 329 325 322 307 268 263 253 264 177 163 134 147 126 126 187 205 173 136 157 181 192 186 212 180 224 224 213 204 214 195 294 193 193 202 184 208 202 233 196 201 250
333 331 331 330 327 336 329 318 318 305 262 283 297 215 165 153 145 151 144 185 206 199 148 162 159 191 203 205 198 190 215 218 195 193 201 194 245 209 182 181 191 183 213 216 289 232 257
328 331 332 327 328 330 333 315 318 288 295 298 258 184 154 154 153 143 178 212 206 143 120 155 183 184 201 186 194 194 195 217 214 191 202 228 268 198 174 166 227 214 153 165 208 235 237
329 334 330 327 330 331 333 332 330 296 285 341 261 197 148 147 136 162 199 196 184 162 145 164 197 201 217 199 199 196 231 275 198 201 192 221 227 162 162 202 193 177 210 216 180 217 243
325 332 327 328 330 330 342 337 334 305 291 293 252 158 160 146 162 171 167 176 157 163 189 163 200 207 220 188 215 203 227 219 182 157 192 207 249 233 226 224 217 205 206 201 202 211 221
324 327 330 331 330 331 337 345 336 328 312 18 257 210 163 165 149 170 154 181 165 166 178 189 220 207 202 226 228 199 228 228 202 164 183 172 220 269 226 209 186 196 192 199 211 107 235
327 324 329 332 335 331 338 345 339 327 328 318 260 158 138 186 148 151 171 190 197 216 215 188 231 219 209 226 225 260 236 259 196 190 166 174 220 223 268 27 141 161 202 195 195 194 189
327 327 330 333 331 334 341 344 345 340 322 288 249 134 143 181 179 162 177 188 195 185 207 196 226 220 212 233 229 218 244 267 201 169 177 190 254 222 249 251 248 177 185 189 198 191 195
330 328 326 331 333 336 340 345 344 341 330 210 235 136 133 146 149 164 177 193 197 188 181 196 227 222 220 226 205 207 194 217 201 173 189 216 278 255 258 179 199 185 194 203 193 194 214
331 327 328 330 335 336 341 343 340 338 344 280 225 358 117 149 153 173 193 196 197 202 200 199 213 233 229 235 248 259 265 280 280 149 208 219 236 304 326 58 172 187 211 183 173 196 194
329 332 329 331 334 336 340 336 343 342 334 273 258 115 102 165 170 193 181 203 225 235 225 190 229 227 250 238 282 262 264 264 239 174 180 257 252 252 300 317 38 305 85 169 144 168 149
333 333 331 332 336 336 337 334 344 332 337 291 272 102 108 135 169 169 184 189 266 240 220 254 236 233 242 266 226 17 309 356 338 303 194 225 239 310 357 314 292 9 3 53 149 239 186
329 336 329 331 336 331 334 334 343 340 340 324 349 310 94 128 196 141 164 215 216 238 268 236 128 158 162 234 164 180 201 230 196 241 255 174 228 126 354 55 62 218 343 335 239 301 35
327 335 330 332 333 333 334 335 345 343 336 332 246 216 95 136 174 132 142 209 152 204 280 277 194 166 183 200 139 169 209 311 181 193 177 165 171 185 324 305 288 255 313 299 98 237 320
326 333 332 330 332 332 331 332 343 340 334 336 113 315 98 95 199 159 185 165 194 161 243 242 219 206 147 185 151 190 174 204 146 198 196 158 147 160 155 272 301 351 3 120 221 38 7
328 325 329 325 331 332 328 330 342 341 332 335 133 79 78 121 291 304 268 232 176 204 215 217 304 232 190 177 207 120 132 136 165 241 312 216 183 177 184 214 259 322 348 58 139 108 67